Location: Caltech
(34.1382°N, 118.1253°W)
Time: 18:48:51
(UTC-07:00)

AO-27 - Visible Passes

Search period start: 01 September 2014 00:00
Search period end: 11 September 2014 00:00
Orbit: 786 x 799 km, 98.7° (Epoch: 31 August)

Date Brightness Start Highest point End Pass type
(mag) Time Alt. Az. Time Alt. Az. Time Alt. Az.
01 Sep 9.6 02:58:30 10° NNE 03:00:34 25° NNE 03:00:34 25° NNE visible
01 Sep 9.8 04:40:33 10° NW 04:41:20 11° NW 04:41:20 11° NW visible
02 Sep 10.2 02:30:05 10° NNE 02:31:20 17° NE 02:31:20 17° NE visible
02 Sep 9.5 04:10:04 10° NNW 04:12:06 19° NW 04:12:06 19° NW visible
03 Sep 9.3 03:40:37 10° N 03:42:51 24° NNW 03:42:51 24° NNW visible
04 Sep 9.6 03:11:37 10° NNE 03:13:37 24° NNE 03:13:37 24° NNE visible
05 Sep 10.1 02:43:01 10° NNE 02:44:23 18° NNE 02:44:23 18° NNE visible
05 Sep 9.7 04:23:46 10° NNW 04:25:09 15° NW 04:25:09 15° NW visible
06 Sep 10.6 02:14:55 10° NE 02:15:08 11° NE 02:15:08 11° NE visible
06 Sep 9.5 03:54:00 10° N 03:55:54 20° NNW 03:55:54 20° NNW visible
07 Sep 9.6 03:24:49 10° N 03:26:40 22° N 03:26:40 22° N visible
08 Sep 10.0 02:56:02 10° NNE 02:57:26 19° NNE 02:57:26 19° NNE visible
08 Sep 9.9 04:37:47 10° NW 04:38:12 11° NW 04:38:12 11° NW visible
09 Sep 10.5 02:27:40 10° NE 02:28:11 13° NE 02:28:11 13° NE visible
09 Sep 9.7 04:07:29 10° NNW 04:08:57 17° NNW 04:08:57 17° NNW visible
10 Sep 9.7 03:38:06 10° N 03:39:42 20° N 03:39:42 20° N visible
